Skip Page Navigation
NASA JPL Caltech
NASA Logo - Jet Propulsion Laboratory + View the NASA Portal
+ Center for Near-Earth Object Studies
JPL Home Earth Solar System Stars & Galaxies Technology
JPL Solar System Dynamics
BODIES ORBITS EPHEMERIDES TOOLS PHYSICAL DATA DISCOVERY FAQ SITE MAP
IMPORTANT: The SSD Announcement email list is now available. Major changes are coming in the near future, including possible hostname and/or URL changes. To be notified of such changes, subscribe to this email list.

Please visit this page for more details.


JPL Small-Body Database Browser
Search: [ help ]  
233124 (2005 TF83)
Classification: Main-belt Asteroid          SPK-ID: 2233124
Ephemeris | Orbit Diagram | Orbital Elements | Mission Design | Physical Parameters | Discovery Circumstances ]

[ show orbit diagram ]
Orbital Elements at Epoch 2458600.5 (2019-Apr-27.0) TDB
Reference: JPL 16 (heliocentric ecliptic J2000)
 Element Value Uncertainty (1-sigma)   Units 
e .1619374916150254 5.1583e-08  
a 2.230637454503275 1.3091e-08 au
q 1.869413620418489 1.1932e-07 au
i 3.84657167005226 5.0451e-06 deg
node 337.2060969226661 8.336e-05 deg
peri 18.92891431991356 8.4972e-05 deg
M 48.06047810946156 1.5407e-05 deg
tp 2458438.047088885496
(2018-Nov-15.54708889)
5.2158e-05 TDB
period 1216.863633108716
3.33
1.0712e-05
2.933e-08
d
yr
n .295842516946874 2.6043e-09 deg/d
Q 2.591861288588061 1.5211e-08 au
  Orbit Determination Parameters
   # obs. used (total)      334  
   data-arc span      5784 days (15.84 yr)  
   first obs. used      2003-01-05  
   last obs. used      2018-11-06  
   planetary ephem.      DE431  
   SB-pert. ephem.      SB431-N16  
   condition code      0  
   norm. resid. RMS      .54087  
   source      ORB  
   producer      Otto Matic  
   solution date      2019-Jul-14 05:14:47  

Additional Information
 Earth MOID = .864348 au 
 Jupiter MOID = 2.84025 au 
 T_jup = 3.622 
[ show covariance matrix ]

Ephemeris | Orbit Diagram | Orbital Elements | Mission Design | Physical Parameters | Discovery Circumstances ]

Physical Parameter Table
Parameter Symbol Value Units Sigma Reference Notes
absolute magnitude H 17.2   n/a MPO454686  

233124 (2005 TF83)          Discovered 2005-Oct-03 by LINEAR at Socorro
Reference: 20100228/Numbers.arcLast Updated: 2010-03-03
Ephemeris | Orbit Diagram | Orbital Elements | Mission Design | Physical Parameters | Discovery Circumstances ]
ABOUT SSD CREDITS/AWARDS PRIVACY/COPYRIGHT GLOSSARY LINKS
FirstGov 2019-Dec-05 22:33 UT
(server date/time)  
NASA Home Page
Site Manager:   Ryan S. Park
Webmaster  Alan B. Chamberlin